Regional Weather Roundup
Issued by NWS

Home | Current Version | Previous Version | Graphics & Text | Print | Product List | Glossary On
Versions: 1 2 3 4 5 6 7 8 9 10 11 12 13 14 15 16 17 18 19 20 21 22 23 24 25 26 27 28 29 30 31 32 33 34 35 36 37 38 39 40 41 42 43 44 45 46 47 48 49 50
000
ASUS43 KDMX 301607
RWRIA

WEATHER ROUNDUP FOR IOWA
NATIONAL WEATHER SERVICE DES MOINES IA
1100 AM CDT THU JUL 30 2015

NOTE: "FAIR" INDICATES FEW OR NO CLOUDS BELOW 12,000 FEET WITH NO
SIGNIFICANT WEATHER AND/OR OBSTRUCTIONS TO VISIBILITY.

* - THESE STATIONS ARE NOT NWS STATIONS...THUS NOT UNDER NWS
QUALITY CONTROL.  THEY ALSO DO NOT REPORT WEATHER SUCH
AS PRECIPITATION OR FOG.

IAZ001>003-012>014-020>022-031>034-043>046-301700-
   NORTHWEST IOWA

CITY           SKY/WX    TMP DP  RH WIND       PRES   REMARKS
CARROLL *      SUNNY     77  63  61 W13       30.18S
CHEROKEE *     SUNNY     77  64  65 W7        30.17S
DENISON *      SUNNY     77  64  65 W8        30.18S HAZE
LE MARS *      SUNNY     79  64  61 W12       30.17F HX  81
ORANGE CITY *  SUNNY     75  63  64 W10       30.17R
SHELDON *      SUNNY     77  63  61 W12       30.15S
SIOUX CITY     SUNNY     80  63  55 W14       30.18S HX  81
SPENCER        SUNNY     79  62  56 W10       30.15S HX  80
STORM LAKE *   SUNNY     75  63  64 W13G20    30.19S
$$

IAZ055>058-069>071-079>083-090>094-301700-
   SOUTHWEST IOWA

CITY           SKY/WX    TMP DP  RH WIND       PRES   REMARKS
ATLANTIC *     SUNNY     79  64  61 W8        30.20F HX  81
AUDUBON *      SUNNY     79  64  61 W8        30.21S HX  81
CLARINDA *     SUNNY     79  66  65 W5        30.23F HX  81
COUNCIL BLFS * SUNNY     79  64  61 SW8       30.21F HX  81
CRESTON *      SUNNY     79  63  57 W12       30.23R HX  80
HARLAN  *      SUNNY     77  70  78 W8        30.24R
LAMONI         SUNNY     80  65  59 W9        30.21S HX  82
RED OAK *      SUNNY     79  66  65 W7        30.22R HX  81
SHENANDOAH *   SUNNY     79  70  73 SW5       30.22S HX  81
$$

IAZ047>049-059>061-072>074-084-301700-
   CENTRAL IOWA

CITY           SKY/WX    TMP DP  RH WIND       PRES   REMARKS
AMES           SUNNY     78  63  59 W13G20    30.16R HX  80
ANKENY *       SUNNY     81  61  50 W13G20    30.16S HX  81
CHARITON *     SUNNY     81  64  57 W8        30.19S HX  82
DES MOINES     MOSUNNY   83  60  45 W10       30.17R HX  83
GRINNELL*      SUNNY     79  63  57 W9        30.16S HX  80
KNOXVILLE *    SUNNY     79  63  57 W12       30.17R HX  80
MARSHALLTOWN   SUNNY     77  65  66 W8        30.14S
PELLA *        SUNNY     79  66  65 W9G17     30.18S HX  81
PERRY *          N/A     79  63  57 W10       30.18R HX  80
$$

IAZ004>006-015-016-023>025-035-036-301700-
   NORTH CENTRAL IOWA

CITY           SKY/WX    TMP DP  RH WIND       PRES   REMARKS
ALGONA *       SUNNY     79  64  61 SW13      30.14S HX  81
CLARION *      SUNNY     75  66  73 SW8       30.14S
ESTHERVILLE    SUNNY     78  63  59 W5        30.14R HX  80
FORT DODGE *   SUNNY     77  64  65 W9        30.17R
MASON CITY     SUNNY     80  63  55 W12       30.14R HX  81
FOREST CITY *  SUNNY     77  59  53 W6        30.13S
IOWA FALLS *     N/A     77  64  65 W9        30.16R
$$

IAZ007>011-017>019-026>030-037>042-050>054-066-301700-
   NORTHEAST IOWA

CITY           SKY/WX    TMP DP  RH WIND       PRES   REMARKS
CEDAR RAPIDS   SUNNY     77  68  73 SW10      30.13R
CHARLES CITY * SUNNY     79  64  61 W8        30.12S HX  81
CLINTON *        N/A    N/A N/A N/A MISG        N/A
DECORAH *      SUNNY     79  61  53 VRB7      30.09S HX  80
DUBUQUE        SUNNY     80  60  50 W9        30.11S HX  81
MONTICELLO *   SUNNY     79  64  61 W9        30.12R HX  81
OELWEIN *      SUNNY     77  63  61 W8        30.13R
WATERLOO       SUNNY     81  63  54 W7        30.11R HX  82
$$

IAZ064-065-067-068-078-301700-
   EAST CENTRAL IOWA

CITY           SKY/WX    TMP DP  RH WIND       PRES   REMARKS
DAVENPORT      SUNNY     79  66  64 W6        30.13R HX  81
IOWA CITY      SUNNY     79  65  62 SW10      30.14S HX  81
MT. PLEASANT * SUNNY     82  55  39 W8        30.16R HX  82
MUSCATINE *    SUNNY     81  63  54 W8        30.14R HX  82
QUAD CITIES    SUNNY     81  62  52 W7        30.12R HX  82
$$

IAZ062-063-075>077-085>089-095>099-301700-
   SOUTHEAST IOWA

CITY           SKY/WX    TMP DP  RH WIND       PRES   REMARKS
BURLINGTON     SUNNY     81  62  52 NW8       30.15S HX  82
FAIRFIELD *    SUNNY     79  59  50 W14       30.17R HX  80
FORT MADISON * SUNNY     81  64  57 W8        30.17R HX  82
KEOKUK *       SUNNY     82  63  51 W9        30.16S HX  83
OSKALOOSA *      N/A     79  64  61 W8        30.17S HX  81
CENTERVILLE *  SUNNY     81  63  54 W9        30.21R HX  82
OTTUMWA        SUNNY     79  62  56 W9        30.16R HX  80
WASHINGTON *   SUNNY     79  64  61 W10       30.16S HX  81
$$

ABBREVIATIONS USED IN REMARKS
   TC - TEMPERATURES IN CELSIUS
  WCI - WIND CHILL INDEX
   HX - HEAT INDEX
  VSB - VISIBILITY
$$



USA.gov is the U.S. government's official web portal to all federal, state and local government web resources and services.